• In Netherlands
  • List of Countries
  • For 7 days
  • Water Temperature
  • Satellite Maps
  • Weather Map
  • Weather Widgets
  • user-avatar
    Login

    Hourly Weather La Esperanza

    Today, 27 May, Sunday

    Time Temperature Precipitation Wind Pressure Humidity
    00:00 +15°C° 0 mm 0 mps 616 mmHg 90%
    01:00 +15°C° 0.5 mm 0 mps 616 mmHg 90%
    02:00 +15°C° 0.5 mm 0 mps 615 mmHg 91%
    03:00 +14°C° 0.5 mm 0 mps 615 mmHg 91%
    04:00 +15°C° 0 mm 0 mps 615 mmHg 90%
    05:00 +15°C° 0 mm 0 mps 616 mmHg 88%
    06:00 +15°C° 0 mm 0 mps 616 mmHg 87%
    07:00 +17°C° 0.1 mm 0 mps 617 mmHg 79%
    08:00 +21°C° 0.1 mm 1 mps 618 mmHg 71%
    09:00 +23°C° 0.1 mm 1 mps 619 mmHg 63%
    10:00 +24°C° 0.6 mm 1 mps 619 mmHg 61%
    11:00 +25°C° 0.6 mm 1 mps 619 mmHg 59%
    12:00 +26°C° 0.6 mm 1 mps 619 mmHg 56%
    13:00 +25°C° 1.3 mm 1 mps 618 mmHg 60%
    14:00 +24°C° 1.3 mm 1 mps 617 mmHg 63%
    15:00 +23°C° 1.3 mm 1 mps 617 mmHg 67%
    16:00 +22°C° 1.3 mm 1 mps 616 mmHg 73%
    17:00 +20°C° 1.3 mm 1 mps 616 mmHg 80%
    18:00 +19°C° 1.3 mm 1 mps 616 mmHg 86%
    19:00 +19°C° 0.9 mm 1 mps 616 mmHg 88%
    20:00 +18°C° 0.9 mm 1 mps 616 mmHg 89%
    21:00 +18°C° 0.9 mm 1 mps 617 mmHg 91%
    22:00 +16°C° 0.3 mm 1 mps 617 mmHg 91%
    23:00 +16°C° 0.3 mm 1 mps 617 mmHg 91%

    Tomorrow, 28 May, Monday

    Time Temperature Precipitation Wind Pressure Humidity
    00:00 +16°C° 0.3 mm 1 mps 617 mmHg 92%
    01:00 +15°C° 0.4 mm 0 mps 616 mmHg 92%
    02:00 +15°C° 0.4 mm 0 mps 616 mmHg 92%
    03:00 +15°C° 0.4 mm 0 mps 615 mmHg 93%
    04:00 +15°C° 0 mm 0 mps 615 mmHg 92%
    05:00 +15°C° 0 mm 0 mps 615 mmHg 91%
    06:00 +15°C° 0 mm 0 mps 616 mmHg 90%
    07:00 +16°C° 0.1 mm 0 mps 617 mmHg 84%
    08:00 +18°C° 0.1 mm 0 mps 617 mmHg 78%
    09:00 +21°C° 0.1 mm 1 mps 618 mmHg 72%
    10:00 +23°C° 0.2 mm 1 mps 619 mmHg 68%
    11:00 +24°C° 0.2 mm 1 mps 619 mmHg 64%
    12:00 +25°C° 0.2 mm 1 mps 619 mmHg 61%
    13:00 +24°C° 0.9 mm 1 mps 618 mmHg 63%
    14:00 +23°C° 0.9 mm 1 mps 617 mmHg 66%
    15:00 +23°C° 0.9 mm 1 mps 617 mmHg 69%
    16:00 +21°C° 1 mm 1 mps 616 mmHg 75%
    17:00 +20°C° 1 mm 1 mps 616 mmHg 81%
    18:00 +19°C° 1 mm 1 mps 616 mmHg 86%
    19:00 +18°C° 0.5 mm 1 mps 616 mmHg 88%
    20:00 +18°C° 0.5 mm 1 mps 617 mmHg 90%
    21:00 +15°C° 0.5 mm 0 mps 617 mmHg 91%
    22:00 +16°C° 0.2 mm 1 mps 617 mmHg 92%
    23:00 +16°C° 0.2 mm 1 mps 617 mmHg 92%

    Day after tomorrow, 29 May, Tuesday

    Time Temperature Precipitation Wind Pressure Humidity
    00:00 +16°C° 0.2 mm 1 mps 616 mmHg 92%
    01:00 +16°C° 0 mm 1 mps 616 mmHg 92%
    02:00 +16°C° 0 mm 1 mps 616 mmHg 92%
    03:00 +14°C° 0 mm 0 mps 615 mmHg 92%
    04:00 +14°C° 0 mm 0 mps 615 mmHg 91%
    05:00 +14°C° 0 mm 0 mps 615 mmHg 91%
    06:00 +14°C° 0 mm 0 mps 615 mmHg 90%
    07:00 +19°C° 0 mm 1 mps 617 mmHg 82%
    08:00 +21°C° 0 mm 1 mps 618 mmHg 73%
    09:00 +23°C° 0 mm 1 mps 619 mmHg 65%
    10:00 +24°C° 0.3 mm 1 mps 619 mmHg 62%
    11:00 +25°C° 0.3 mm 1 mps 619 mmHg 58%
    12:00 +26°C° 0.3 mm 1 mps 619 mmHg 55%
    13:00 +25°C° 1 mm 1 mps 618 mmHg 58%
    14:00 +24°C° 1 mm 1 mps 618 mmHg 62%
    15:00 +23°C° 1 mm 2 mps 617 mmHg 66%
    16:00 +22°C° 1.2 mm 1 mps 616 mmHg 71%
    17:00 +21°C° 1.2 mm 1 mps 616 mmHg 77%
    18:00 +19°C° 1.2 mm 1 mps 616 mmHg 83%
    19:00 +19°C° 1.3 mm 1 mps 616 mmHg 84%
    20:00 +18°C° 1.3 mm 1 mps 616 mmHg 86%
    21:00 +18°C° 1.3 mm 1 mps 617 mmHg 88%
    22:00 +15°C° 1.1 mm 0 mps 617 mmHg 89%
    23:00 +15°C° 1.1 mm 0 mps 617 mmHg 89%

    30 May, Wednesday

    Time Temperature Precipitation Wind Pressure Humidity
    00:00 +15°C° 1.1 mm 0 mps 617 mmHg 90%
    01:00 +15°C° 0.3 mm 0 mps 616 mmHg 90%
    02:00 +15°C° 0.3 mm 0 mps 616 mmHg 90%
    03:00 +15°C° 0.3 mm 0 mps 615 mmHg 90%
    04:00 +15°C° 0 mm 0 mps 615 mmHg 90%
    05:00 +16°C° 0 mm 1 mps 616 mmHg 90%
    06:00 +16°C° 0 mm 1 mps 616 mmHg 90%
    07:00 +19°C° 0 mm 1 mps 617 mmHg 81%
    08:00 +21°C° 0 mm 1 mps 618 mmHg 73%
    09:00 +24°C° 0 mm 1 mps 619 mmHg 64%
    10:00 +25°C° 0.5 mm 1 mps 619 mmHg 61%
    11:00 +25°C° 0.5 mm 1 mps 619 mmHg 58%
    12:00 +26°C° 0.5 mm 1 mps 619 mmHg 55%
    13:00 +25°C° 1.1 mm 1 mps 618 mmHg 59%
    14:00 +24°C° 1.1 mm 1 mps 617 mmHg 63%
    15:00 +23°C° 1.1 mm 1 mps 616 mmHg 66%
    16:00 +22°C° 1.5 mm 1 mps 616 mmHg 72%
    17:00 +21°C° 1.5 mm 1 mps 616 mmHg 78%
    18:00 +19°C° 1.5 mm 1 mps 615 mmHg 83%
    19:00 +19°C° 1.6 mm 1 mps 616 mmHg 85%
    20:00 +18°C° 1.6 mm 1 mps 616 mmHg 86%
    21:00 +16°C° 1.6 mm 0 mps 616 mmHg 87%
    22:00 +16°C° 1.3 mm 0 mps 616 mmHg 87%
    23:00 +15°C° 1.3 mm 0 mps 616 mmHg 88%

    31 May, Thursday

    Time Temperature Precipitation Wind Pressure Humidity
    00:00 +16°C° 1.3 mm 1 mps 616 mmHg 88%
    01:00 +16°C° 0.7 mm 1 mps 616 mmHg 89%
    02:00 +16°C° 0.7 mm 1 mps 615 mmHg 89%
    03:00 +16°C° 0.7 mm 1 mps 615 mmHg 90%
    04:00 +16°C° 0.2 mm 1 mps 615 mmHg 90%
    05:00 +16°C° 0.2 mm 1 mps 615 mmHg 90%
    06:00 +16°C° 0.2 mm 1 mps 616 mmHg 89%
    07:00 +19°C° 0.2 mm 1 mps 617 mmHg 83%
    08:00 +20°C° 0.2 mm 1 mps 618 mmHg 76%
    09:00 +22°C° 0.2 mm 1 mps 619 mmHg 69%
    10:00 +22°C° 1.2 mm 1 mps 618 mmHg 70%
    11:00 +22°C° 1.2 mm 1 mps 618 mmHg 71%
    12:00 +22°C° 1.2 mm 1 mps 618 mmHg 71%
    13:00 +22°C° 1.6 mm 1 mps 617 mmHg 75%
    14:00 +21°C° 1.6 mm 1 mps 616 mmHg 78%
    15:00 +20°C° 1.6 mm 1 mps 616 mmHg 82%
    16:00 +20°C° 1 mm 1 mps 616 mmHg 84%
    17:00 +19°C° 1 mm 1 mps 616 mmHg 86%
    18:00 +17°C° 1 mm 0 mps 616 mmHg 89%
    19:00 +16°C° 0.7 mm 0 mps 616 mmHg 90%
    20:00 +16°C° 0.7 mm 0 mps 616 mmHg 91%
    21:00 +15°C° 0.7 mm 0 mps 616 mmHg 91%
    22:00 +15°C° 1.2 mm 0 mps 616 mmHg 92%
    23:00 +16°C° 1.2 mm 1 mps 616 mmHg 92%

    1 June, Friday

    Time Temperature Precipitation Wind Pressure Humidity
    00:00 +16°C° 1.2 mm 1 mps 616 mmHg 92%
    01:00 +16°C° 0.6 mm 1 mps 616 mmHg 92%
    02:00 +16°C° 0.6 mm 1 mps 615 mmHg 92%
    03:00 +15°C° 0.6 mm 1 mps 615 mmHg 92%
    04:00 +15°C° 0.3 mm 1 mps 615 mmHg 92%
    05:00 +15°C° 0.3 mm 1 mps 616 mmHg 92%
    06:00 +15°C° 0.3 mm 1 mps 616 mmHg 91%
    07:00 +18°C° 0.1 mm 1 mps 617 mmHg 87%
    08:00 +19°C° 0.1 mm 1 mps 617 mmHg 82%
    09:00 +20°C° 0.1 mm 1 mps 618 mmHg 77%
    10:00 +21°C° 0.9 mm 1 mps 618 mmHg 74%
    11:00 +22°C° 0.9 mm 1 mps 618 mmHg 70%
    12:00 +23°C° 0.9 mm 1 mps 618 mmHg 67%
    13:00 +22°C° 1.8 mm 1 mps 618 mmHg 70%
    14:00 +22°C° 1.8 mm 1 mps 617 mmHg 74%
    15:00 +21°C° 1.8 mm 1 mps 616 mmHg 77%
    16:00 +20°C° 1.2 mm 1 mps 616 mmHg 81%
    17:00 +19°C° 1.2 mm 1 mps 616 mmHg 85%
    18:00 +16°C° 1.2 mm 0 mps 616 mmHg 89%
    19:00 +16°C° 0.8 mm 0 mps 616 mmHg 89%
    20:00 +16°C° 0.8 mm 0 mps 617 mmHg 89%
    21:00 +15°C° 0.8 mm 0 mps 617 mmHg 90%
    22:00 +16°C° 0.3 mm 1 mps 617 mmHg 90%
    23:00 +16°C° 0.3 mm 1 mps 616 mmHg 90%
    Show more